Erie, PA

6:33 AM EDT on October 16, 2019 (GMT -0400)
Erie International

Weather History for KERI - August, 2019

Change the Weather History Date:

Tuesday, August 20, 2019

  Actual Average Record
Temperature  
Mean Temperature 78 °F 70 °F  
Max Temperature 89 °F 79 °F 91 °F (1959)
Min Temperature 66 °F 62 °F 46 °F (1977)
Degree Days  
Heating Degree Days 0 0  
Month to date heating degree days 0 0  
Since 1 June heating degree days 38 68  
Since 1 July heating degree days 0 7  
Cooling Degree Days 12 6  
Month to date cooling degree days 175 128  
Year to date cooling degree days 640 503  
Since 1 June cooling degree days 607 464  
Growing Degree Days 28 (Base 50)    
Moisture  
Dew Point 66 °F    
Average Humidity 67    
Maximum Humidity 87    
Minimum Humidity 49    
Precipitation  
Precipitation 0.00 in 0.11 in 2.46 in (2007)
Month to date precipitation 2.56 2.27  
Year to date precipitation 25.06 24.63  
Snow  
Snow 0.00 in 0.00 in - ()
Month to date snowfall 0.0 0.0  
Since 1 June snowfall 0.0 0.0  
Since 1 July snowfall 0.0 0.0  
Snow Depth 0.00 in    
Sea Level Pressure  
Sea Level Pressure 30.03 in    
Wind  
Wind Speed 4 mph ()    
Max Wind Speed 13 mph    
Max Gust Speed 17 mph    
Visibility 10.0 miles    
Events      
T = Trace of Precipitation, MM = Missing Value Source: Averaged Metar Reports

Daily Weather History Graph

Daily Weather History Graph

Search for Another Location

Airport or City:

Astronomy

Aug. 20, 2019 Rise Set
Actual Time 6:33 AM EDT 8:14 PM EDT
Civil Twilight 6:03 AM EDT 8:43 PM EDT
Nautical Twilight 5:27 AM EDT 9:19 PM EDT
Astronomical Twilight 4:49 AM EDT 9:57 PM EDT
Moon 10:56 PM EDT (8/20) 11:14 AM EDT (8/20)
Length of Visible Light 14h 39m
Length of Day
13h 40m
Waning Gibbous, 78% of the Moon is Illuminated
Aug 20
Waning Gibbous
Aug 23
Last Quarter
Aug 30
New
Sep 5
First Quarter
Sep 14
Full

Hourly Weather History & Observations

Time (EDT) Temp. Heat Index Dew Point Humidity Pressure Visibility Wind Dir Wind Speed Gust Speed Precip Events Conditions
12:51 AM 68.0 °F - 62.1 °F 81% 30.08 in 10.0 mi SSW 3.5 mph - N/A   Clear
1:51 AM 68.0 °F - 62.1 °F 81% 30.08 in 10.0 mi Calm Calm - N/A   Clear
2:51 AM 68.0 °F - 63.0 °F 84% 30.08 in 10.0 mi South 4.6 mph - N/A   Clear
3:51 AM 68.0 °F - 62.1 °F 81% 30.08 in 10.0 mi South 3.5 mph - N/A   Clear
4:51 AM 66.9 °F - 62.1 °F 84% 30.08 in 10.0 mi SSW 3.5 mph - N/A   Clear
5:51 AM 66.9 °F - 62.1 °F 84% 30.09 in 10.0 mi South 3.5 mph - N/A   Clear
6:51 AM 66.9 °F - 62.1 °F 84% 30.09 in 10.0 mi Calm Calm - N/A   Clear
7:51 AM 69.1 °F - 63.0 °F 81% 30.09 in 10.0 mi Calm Calm - N/A   Clear
8:51 AM 73.9 °F - 64.0 °F 71% 30.09 in 10.0 mi SSE 3.5 mph - N/A   Clear
9:51 AM 79.0 °F - 66.0 °F 64% 30.06 in 10.0 mi SSE 10.4 mph - N/A   Clear
10:51 AM 82.9 °F 85.4 °F 66.9 °F 58% 30.09 in 10.0 mi South 8.1 mph - N/A   Clear
11:51 AM 84.0 °F 85.8 °F 64.9 °F 53% 30.08 in 10.0 mi South 9.2 mph - N/A   Clear
12:51 PM 87.1 °F 89.2 °F 66.0 °F 49% 30.06 in 10.0 mi SW 4.6 mph - N/A   Partly Cloudy
1:51 PM 87.1 °F 89.2 °F 66.0 °F 49% 30.04 in 10.0 mi Variable 3.5 mph - N/A   Partly Cloudy
2:51 PM 84.9 °F 88.2 °F 68.0 °F 57% 30.03 in 10.0 mi North 8.1 mph - N/A   Partly Cloudy
3:51 PM 86.0 °F 89.4 °F 68.0 °F 55% 30.01 in 10.0 mi NNE 8.1 mph - N/A   Clear
4:51 PM 87.1 °F 91.3 °F 69.1 °F 55% 29.99 in 10.0 mi NNE 5.8 mph - N/A   Clear
5:51 PM 88.0 °F 91.4 °F 68.0 °F 51% 29.96 in 10.0 mi Calm Calm - N/A   Clear
6:51 PM 86.0 °F 88.2 °F 66.0 °F 51% 29.95 in 10.0 mi South 3.5 mph - N/A   Clear
7:51 PM 82.0 °F 85.9 °F 70.0 °F 67% 29.94 in 10.0 mi East 4.6 mph - N/A   Clear
8:51 PM 79.0 °F - 69.1 °F 72% 29.93 in 10.0 mi SE 4.6 mph - N/A   Clear
9:51 PM 80.1 °F 82.7 °F 68.0 °F 67% 29.93 in 10.0 mi SSE 6.9 mph - N/A   Clear
10:51 PM 80.1 °F 82.7 °F 68.0 °F 67% 29.92 in 10.0 mi SSE 6.9 mph - N/A   Clear
11:51 PM 80.1 °F 82.1 °F 66.0 °F 62% 29.94 in 10.0 mi WSW 8.1 mph - N/A   Clear